Location: Gleizolles
(44.4833°N, 6.7667°E)
Time: 00:54:39
(UTC+00:00)

S-56A Canister/Altair - Pass Details

Date: 30 June 2024
Orbit: 638 x 2488 km, 38.9° (Epoch: 24 July)

Event Time Altitude Azimuth Distance (km) Brightness Sun altitude
Rises 16:54:42 0° 209° (SSW) 3,204 11.0 23.3°
Reaches altitude 10° 16:57:18 10° 194° (SSW) 2,448 10.2 22.8°
Maximum altitude 17:01:49 24° 142° (SE) 1,983 9.4 22.0°
Drops below altitude 10° 17:07:41 10° 93° (E) 3,294 10.3 21.0°
Sets 17:11:51 0° 82° (E) 4,627 11.0 20.3°
